This is the latest recevied weather packets stored in our database for station/object OM6ABF-12. If no packets are shown the sender has not sent any weather packets the latest 10 day(s).
| Time | Temp. | Humidity | Pressure | Rain* | Wind** | Luminosity | Snow |
|---|---|---|---|---|---|---|---|
| 1777313239 | 5° C | 39% | 1028.2 hPa | - | - | - | - |
| 1777312282 | 5° C | 38% | 1028.2 hPa | - | - | - | - |
| 1777311326 | 5.56° C | 37% | 1028.2 hPa | - | - | - | - |
| 1777310368 | 6.11° C | 37% | 1028.2 hPa | - | - | - | - |
| 1777309412 | 7.22° C | 36% | 1028.1 hPa | - | - | - | - |
| 1777308455 | 7.78° C | 35% | 1028.1 hPa | - | - | - | - |
| 1777307498 | 8.33° C | 35% | 1028.3 hPa | - | - | - | - |
| 1777306541 | 8.89° C | 34% | 1028.3 hPa | - | - | - | - |
| 1777305583 | 9.44° C | 32% | 1028.3 hPa | - | - | - | - |
| 1777304628 | 10° C | 30% | 1028.4 hPa | - | - | - | - |
| 1777303672 | 10.56° C | 28% | 1028.5 hPa | - | - | - | - |
| 1777302713 | 10.56° C | 29% | 1028.6 hPa | - | - | - | - |
| 1777301755 | 11.67° C | 27% | 1028.7 hPa | - | - | - | - |
| 1777300795 | 11.11° C | 27% | 1028.8 hPa | - | - | - | - |
| 1777299839 | 11.67° C | 28% | 1028.7 hPa | - | - | - | - |
| 1777298882 | 11.11° C | 27% | 1029 hPa | - | - | - | - |
| 1777297925 | 11.67° C | 26% | 1029 hPa | - | - | - | - |
| 1777296968 | 11.11° C | 27% | 1029.1 hPa | - | - | - | - |
| 1777296011 | 10.56° C | 26% | 1029.2 hPa | - | - | - | - |
| 1777295054 | 11.11° C | 26% | 1029.5 hPa | - | - | - | - |
| 1777294096 | 11.11° C | 25% | 1029.6 hPa | - | - | - | - |
| 1777293138 | 11.11° C | 27% | 1029.6 hPa | - | - | - | - |
| 1777292181 | 10.56° C | 25% | 1029.7 hPa | - | - | - | - |
| 1777291224 | 11.11° C | 24% | 1029.8 hPa | - | - | - | - |
| 1777290267 | 11.11° C | 27% | 1029.8 hPa | - | - | - | - |
* Rain since midnight (hover to see other rain measurements)
** Current wind speed in m/s (hover to see current wind gust speed)